, NV

(GMT )
Eureka Airport

Weather History for K05U - December, 2012

Change the Weather History Date:

Tuesday, December 4, 2012

  Actual Average Record
Temperature  
Mean Temperature 40 °F -  
Max Temperature 48 °F - - ()
Min Temperature 32 °F - - ()
Degree Days  
Heating Degree Days 25    
Moisture  
Dew Point 32 °F    
Average Humidity 75    
Maximum Humidity 87    
Minimum Humidity 61    
Precipitation  
Precipitation 0.00 in - - ()
Sea Level Pressure  
Sea Level Pressure 30.27 in    
Wind  
Wind Speed 3 mph ()    
Max Wind Speed 8 mph    
Max Gust Speed -    
Visibility 10.0 miles    
Events      
Averages and records for this station are not official NWS values.
T = Trace of Precipitation, MM = Missing Value Source: Averaged Metar Reports

Daily Weather History Graph

Daily Weather History Graph

Search for Another Location

Airport or City:

Trip Planner

Search our weather history database for the weather conditions in past years. The results will help you decide how hot, cold, wet, or windy it might be!

Date:

Astronomy

Dec. 04, 2012 Rise Set
Actual Time 6:48 AM PST 4:19 PM PST
Civil Twilight 6:18 AM PST 4:49 PM PST
Nautical Twilight 5:45 AM PST 5:23 PM PST
Astronomical Twilight 5:12 AM PST 5:55 PM PST
Moon 10:10 PM PST (12/4) 10:46 AM PST (12/4)
Length of Visible Light 10h 30m
Length of Day
9h 30m
Waning Gibbous, 68% of the Moon is Illuminated
Dec 4
Waning Gibbous
Dec 6
Last Quarter
Dec 13
New
Dec 19
First Quarter
Dec 28
Full

Hourly Weather History & Observations

Time (PST) Temp. Windchill Dew Point Humidity Pressure Visibility Wind Dir Wind Speed Gust Speed Precip Events Conditions
12:15 AM 32.0 °F 25.6 °F 26.6 °F 80% 30.27 in 10.0 mi SW 6.9 mph - N/A   Scattered Clouds
12:35 AM 32.0 °F 27.5 °F 26.6 °F 80% 30.26 in 10.0 mi SW 4.6 mph - N/A   Mostly Cloudy
12:55 AM 32.0 °F 27.5 °F 26.6 °F 80% 30.26 in 10.0 mi WSW 4.6 mph - N/A   Overcast
1:15 AM 32.0 °F 26.4 °F 28.4 °F 87% 30.27 in 10.0 mi SW 5.8 mph - N/A   Overcast
1:35 AM 32.0 °F 26.4 °F 26.6 °F 80% 30.27 in 10.0 mi SSW 5.8 mph - N/A   Overcast
1:55 AM 32.0 °F 26.4 °F 28.4 °F 87% 30.28 in 10.0 mi SSW 5.8 mph - N/A   Overcast
2:15 AM 35.6 °F 30.7 °F 28.4 °F 75% 30.29 in 10.0 mi SSW 5.8 mph - N/A   Overcast
2:35 AM 33.8 °F 27.7 °F 28.4 °F 81% 30.28 in 10.0 mi South 6.9 mph - N/A   Overcast
2:55 AM 33.8 °F 27.7 °F 28.4 °F 81% 30.27 in 10.0 mi South 6.9 mph - N/A   Overcast
3:15 AM 35.6 °F 30.7 °F 28.4 °F 75% 30.27 in 10.0 mi SW 5.8 mph - N/A   Overcast
3:35 AM 33.8 °F - 28.4 °F 81% 30.26 in 10.0 mi Calm Calm - N/A   Overcast
3:55 AM 33.8 °F 28.6 °F 28.4 °F 81% 30.27 in 10.0 mi West 5.8 mph - N/A   Mostly Cloudy
4:15 AM 33.8 °F 28.6 °F 28.4 °F 81% 30.28 in 10.0 mi SW 5.8 mph - N/A   Mostly Cloudy
4:35 AM 33.8 °F 27.0 °F 28.4 °F 81% 30.28 in 10.0 mi SW 8.1 mph - N/A   Overcast
4:55 AM 35.6 °F - 28.4 °F 75% 30.29 in 10.0 mi Calm Calm - N/A   Overcast
5:15 AM 33.8 °F 27.7 °F 28.4 °F 81% 30.28 in 10.0 mi SSW 6.9 mph - N/A   Overcast
5:40 AM 32.0 °F 28.7 °F 28.4 °F 87% 30.29 in 10.0 mi WSW 3.5 mph - N/A   Mostly Cloudy
5:55 AM 32.0 °F 28.7 °F 28.4 °F 87% 30.30 in 10.0 mi SW 3.5 mph - N/A   Overcast
6:15 AM 32.0 °F 26.4 °F 28.4 °F 87% 30.30 in 10.0 mi SSW 5.8 mph - N/A   Overcast
6:35 AM 33.8 °F 27.7 °F 28.4 °F 81% 30.31 in 10.0 mi SSW 6.9 mph - N/A   Overcast
6:55 AM 35.6 °F 30.7 °F 30.2 °F 81% 30.31 in 10.0 mi SSW 5.8 mph - N/A   Overcast
7:15 AM 35.6 °F 31.7 °F 30.2 °F 81% 30.31 in 10.0 mi SSW 4.6 mph - N/A   Scattered Clouds
7:55 AM 35.6 °F - 30.2 °F 81% 30.32 in 10.0 mi Calm Calm - N/A   Overcast
8:15 AM 35.6 °F - 30.2 °F 81% 30.32 in 10.0 mi Calm Calm - N/A   Overcast
8:35 AM 37.4 °F - 32.0 °F 81% 30.33 in 10.0 mi Calm Calm - N/A   Overcast
8:55 AM 37.4 °F - 32.0 °F 81% 30.34 in 10.0 mi Calm Calm - N/A   Mostly Cloudy
9:15 AM 37.4 °F - 32.0 °F 81% 30.34 in 10.0 mi Calm Calm - N/A   Scattered Clouds
9:35 AM 39.2 °F - 32.0 °F 75% 30.35 in 10.0 mi Calm Calm - N/A   Mostly Cloudy
10:00 AM 41.0 °F - 32.0 °F 70% 30.34 in 10.0 mi Calm Calm - N/A   Overcast
10:15 AM 41.0 °F - 32.0 °F 70% 30.34 in 10.0 mi Calm Calm - N/A   Overcast
10:35 AM 42.8 °F - 32.0 °F 66% 30.33 in 10.0 mi Calm Calm - N/A   Scattered Clouds
11:00 AM 42.8 °F - 32.0 °F 66% 30.32 in 10.0 mi Calm Calm - N/A   Clear
11:20 AM 44.6 °F - 32.0 °F 61% 30.31 in 10.0 mi Calm Calm - N/A   Clear
11:40 AM 44.6 °F - 33.8 °F 66% 30.30 in 10.0 mi Calm Calm - N/A   Clear
12:00 PM 44.6 °F - 32.0 °F 61% 30.29 in 10.0 mi Calm Calm - N/A   Clear
12:15 PM 44.6 °F - 35.6 °F 71% 30.29 in 10.0 mi Calm Calm - N/A   Partly Cloudy
12:40 PM 46.4 °F - 35.6 °F 66% 30.29 in 10.0 mi Calm Calm - N/A   Scattered Clouds
1:00 PM 46.4 °F 44.3 °F 35.6 °F 66% 30.27 in 10.0 mi SW 4.6 mph - N/A   Clear
1:20 PM 46.4 °F - 35.6 °F 66% 30.26 in 10.0 mi Calm Calm - N/A   Clear
1:40 PM 48.2 °F - 35.6 °F 62% 30.26 in 10.0 mi Calm Calm - N/A   Clear
2:00 PM 48.2 °F - 35.6 °F 62% 30.26 in 10.0 mi South 3.5 mph - N/A   Clear
2:15 PM 48.2 °F - 35.6 °F 62% 30.26 in 10.0 mi Calm Calm - N/A   Clear
2:40 PM 48.2 °F - 35.6 °F 62% 30.25 in 10.0 mi Calm Calm - N/A   Partly Cloudy
3:00 PM 48.2 °F - 37.4 °F 66% 30.25 in 10.0 mi Calm Calm - N/A   Clear
3:20 PM 46.4 °F - 37.4 °F 71% 30.25 in 10.0 mi Calm Calm - N/A   Clear
3:40 PM 46.4 °F - 37.4 °F 71% 30.24 in 10.0 mi Calm Calm - N/A   Clear
4:00 PM 44.6 °F - 37.4 °F 76% 30.23 in 10.0 mi Calm Calm - N/A   Clear
4:20 PM 44.6 °F - 37.4 °F 76% 30.24 in 10.0 mi Calm Calm - N/A   Partly Cloudy
4:40 PM 42.8 °F - 35.6 °F 76% 30.24 in 10.0 mi Calm Calm - N/A   Mostly Cloudy
5:00 PM 42.8 °F - 35.6 °F 76% 30.23 in 10.0 mi Calm Calm - N/A   Scattered Clouds
5:20 PM 42.8 °F - 35.6 °F 76% 30.23 in 10.0 mi Calm Calm - N/A   Mostly Cloudy
5:40 PM 41.0 °F - 35.6 °F 81% 30.24 in 10.0 mi Calm Calm - N/A   Mostly Cloudy
6:00 PM 41.0 °F - 35.6 °F 81% 30.24 in 10.0 mi Calm Calm - N/A   Overcast
6:20 PM 41.0 °F - 35.6 °F 81% 30.24 in 10.0 mi Calm Calm - N/A   Overcast
6:40 PM 41.0 °F - 33.8 °F 76% 30.25 in 10.0 mi Calm Calm - N/A   Overcast
7:00 PM 41.0 °F 38.0 °F 33.8 °F 76% 30.25 in 10.0 mi SE 4.6 mph - N/A   Overcast
7:20 PM 42.8 °F 40.1 °F 33.8 °F 70% 30.25 in 10.0 mi SSW 4.6 mph - N/A   Overcast
7:40 PM 42.8 °F 40.1 °F 32.0 °F 66% 30.25 in 10.0 mi South 4.6 mph - N/A   Overcast
8:00 PM 42.8 °F 38.6 °F 33.8 °F 70% 30.25 in 10.0 mi South 6.9 mph - N/A   Overcast
8:20 PM 41.0 °F 37.1 °F 32.0 °F 70% 30.25 in 10.0 mi SSW 5.8 mph - N/A   Overcast
8:40 PM 41.0 °F - 33.8 °F 76% 30.27 in 10.0 mi Calm Calm - N/A   Overcast
9:00 PM 39.2 °F 35.0 °F 33.8 °F 81% 30.24 in 10.0 mi East 5.8 mph - N/A   Overcast
9:20 PM 39.2 °F 37.0 °F 33.8 °F 81% 30.25 in 10.0 mi South 3.5 mph - N/A   Mostly Cloudy
9:40 PM 39.2 °F - 33.8 °F 81% 30.25 in 10.0 mi Calm Calm - N/A   Overcast
10:00 PM 39.2 °F 37.0 °F 32.0 °F 75% 30.24 in 10.0 mi SSW 3.5 mph - N/A   Mostly Cloudy
10:20 PM 41.0 °F 35.8 °F 33.8 °F 76% 30.24 in 10.0 mi South 8.1 mph - N/A   Mostly Cloudy
10:40 PM 44.6 °F 40.7 °F 32.0 °F 61% 30.24 in 10.0 mi SSW 6.9 mph - N/A   Overcast
11:00 PM 41.0 °F 36.4 °F 32.0 °F 70% 30.24 in 10.0 mi SW 6.9 mph - N/A   Overcast
11:20 PM 41.0 °F 39.0 °F 32.0 °F 70% 30.23 in 10.0 mi SSW 3.5 mph - N/A   Overcast
11:40 PM 39.2 °F - 32.0 °F 75% 30.23 in 10.0 mi Calm Calm - N/A   Mostly Cloudy